Simultaneous Nadir Overpasses (SNOs) Predictions

Prediction of SNOs between TERRA and METOP-C Satellite Orbit:

Table of predicted SNOs for the next 14.0 days since TLE Epoch: 6/29/2020
Index Date (TERRA) Time (TERRA) Lat,Lon (TERRA) SZA (TERRA ) Date (METOP-C) Time (METOP-C) Lat,Lon (METOP-C) SZA (METOP-C ) Distance(km) Time Diff (sec)
1 07/01/2020 13:47:08 -81.31,-159.22 118.89 07/01/2020 13:46:39 -81.31,-159.30 118.91 1.38 29
2 07/01/2020 14:36:34 81.32, 8.53 61.14 07/01/2020 14:37:18 81.32, 8.53 61.16 0.42 44
3 07/04/2020 09:21:23 -81.31, -92.81 118.68 07/04/2020 09:21:01 -81.31, -92.78 118.68 0.56 22
4 07/04/2020 10:10:49 81.32, 74.91 61.34 07/04/2020 10:11:40 81.32, 75.06 61.39 2.58 51
5 07/07/2020 04:55:38 -81.31, -26.45 118.42 07/07/2020 04:55:23 -81.31, -26.27 118.40 3.06 15
6 07/07/2020 05:45:04 81.31, 141.24 61.60 07/07/2020 05:46:03 81.31, 141.19 61.62 0.86 59
7 07/10/2020 00:29:51 -81.32, 40.24 118.06 07/10/2020 00:29:44 -81.31, 40.22 118.07 0.89 7
8 07/10/2020 01:19:17 81.32,-152.10 61.95 07/10/2020 01:20:24 81.31,-152.29 61.96 3.31 67
9 07/12/2020 19:14:39 81.31, -61.16 62.28 07/12/2020 19:13:26 81.31, -61.06 62.26 1.71 73
10 07/12/2020 20:04:06 -81.31, 106.50 117.72 07/12/2020 20:04:07 -81.31, 106.32 117.74 3.10 1



Historial Predications of SNOs between TERRA and METOP-C
